Location: Mascot Post Office (historical)
(40.2645°N, 99.5462°W)
Time: 02:40:39
(UTC+00:00)

Cosmos 1741 Rocket - Pass Details

Date: 14 July 2020
Orbit: 761 x 783 km, 74.0° (Epoch: 14 August)

Event Time Altitude Azimuth Distance (km) Brightness Sun altitude
Exits shadow 09:45:47 23° 210° (SSW) 1,580 5.0 -15.1°
Maximum altitude 09:49:04 71° 290° (WNW) 808 4.0 -14.7°
Drops below altitude 10° 09:54:17 10° 15° (NNE) 2,305 7.4 -14.0°
Sets 09:56:41 0° 17° (NNE) 3,238 8.4 -13.6°
